Location: Colossi of Memnon
(25.7167°N, 32.6167°E)
Time: 19:13:50
(UTC+00:00)

N. Korean satellite - Pass Details

Date: 24 September 2021
Orbit: 450 x 495 km, 97.3° (Epoch: 16 October)

Event Time Altitude Azimuth Distance (km) Brightness Sun altitude
Rises 02:29:50 0° 23° (NNE) 2,528 10.6 -16.3°
Reaches altitude 10° 02:32:02 10° 33° (NNE) 1,655 9.8 -15.9°
Maximum altitude 02:35:16 33° 99° (E) 835 8.4 -15.1°
Drops below altitude 10° 02:38:32 10° 164° (SSE) 1,669 9.4 -14.4°
Sets 02:40:45 0° 174° (S) 2,552 10.2 -13.9°
